Погода в Сен-Реми-де-Провансе

Франция     43°47′20″N   4°50′00″E
темп.,
°C
ветер,
м/с
пор.,
м/с
влажн.,
%
обл.,
%
осадки,
мм/ч
давл.,
гПа
погр.,
м
23 апреля, пт
пт2323:00+10юз22840 0.0 101921
02:00+9юв11840 0.0 102010
05:00+8ссв11850 0.0 101912
08:00+10ссв23770 0.0 102099
11:00+17ссв22490 0.0 1021598
14:00+22юз22360 0.0 10201739
17:00+21юз64360 0.0 10201208
20:00+15юз47560 0.0 1020176
24 апреля, сб
сб2423:00+11юв11740 0.0 102210
02:00+10св11715 0.0 102210
05:00+9с117010 0.0 102110
08:00+12ссв226599 0.0 102269
11:00+19в234165 0.0 1022741
14:00+22ю553313 0.0 10211695
17:00+21ю55395 0.0 10191336
20:00+16ю355447 0.0 101993
25 апреля, вс
вс2523:00+12ююв117992 0.0 102110
02:00+11всв22847 0.0 102010
05:00+10ссв1181100 0.0 101810
08:00+12ссв117219 0.0 101838
11:00+18юв1244100 0.0 1018817
14:00+22ю4431100 0.0 10171409
17:00+19ююз5438100 0.0 1016783
20:00+17ююз335197 0.0 101662
26 апреля, пн
пн2623:00+12ю01675 0.0 101610
02:00+11св116844 0.0 101510
05:00+10св2264100 0.0 101211
08:00+12св226214 0.0 101268
11:00+19всв2339100 0.0 1011829
14:00+23ю2325100 0.0 10081649
17:00+18ююз5552100 0.1 1006450
20:00+16св2365100 0.3 100676
27 апреля, вт
вт2723:00+14св2267100 0.1 100748
02:00+13св4682100 0.3 1006214
05:00+12св3692100 0.9 1006215
08:00+12ссв3791100 1.3 1006266
11:00+13ссв2387100 0.1 1006178
14:00+14ююз1177100 0.1 1006210
17:00+16ююз2362100 0.0 1006598
20:00+15ю226637 0.0 100655